Tracking 17152 objects as of 28-April-2015
HD Live streaming from Space Station

SJ-7

Track SJ-7 now!
10-day predictions
SJ-7 is classified as:


NORAD ID: 28737
Int'l Code: 2005-024A
Perigee: 566.8 km
Apogee: 614.3 km
Inclination: 97.7 °
Period: 96.3 minutes
Semi major axis: 6961 km
RCS: 3.0015 m2 (large)
Launch date: July 5, 2005
Source: People's Republic of China (PRC)
Your satellite tracking list
Your tracking list is empty




NASA's NSSDC Master Catalog

Two Line Element Set (TLE):
1 28737U 05024A   15118.51336406  .00001416  00000-0  13445-3 0  9994
2 28737 097.6686 132.2750 0034076 042.1222 318.2617 14.94670649538312

Source of the keplerian elements: AFSPC

N2YO: 413